[[{"header":{"parameterUnit":"m.s-1","parameterCategory":1,"la1":30.2991,"la2":30.254,"lo1":-89.0895,"lo2":-89.0444,"dy":0.0017,"dx":0.0017,"nx":28,"ny":28,"refTime":"2025-09-15T21:00:00:Z","depth":0,"parameterNumber":2,"parameterNumberName":"U-component_of_WINDS"},"data":[0,0,0,0,0,0,0,0,0,0,0,0,0,0,0,0,0,0,0,0,0,0,0,0,0,0,0,0,0,0,0,0,0,0,0,0,0,0,0,0,0,0,0,0,0,0,0,0,0,0,0,0,0,0,0,0,0,0,2.4322,2.4322,0,2.4329,2.4329,2.4329,2.4285,2.4284,2.4283,2.4282,2.4288,2.4289,2.4291,0,0,0,0,0,0,0,0,0,0,0,0,0,2.4268,2.4269,2.4322,2.4322,2.4322,2.4329,2.4329,2.4329,2.4286,2.4284,2.4283,2.4281,2.4288,2.4289,2.4291,0,0,0,0,0,0,0,0,0,0,0,0,0,2.4285,2.427,2.4322,2.4301,2.4299,2.4329,2.4329,2.4329,2.4286,2.4284,2.4282,2.428,2.4287,2.4289,2.4291,2.4341,0,0,2.4297,2.4298,0,0,0,0,0,0,0,0,2.4284,2.4287,2.4304,2.4303,2.4301,2.4304,2.4313,2.4333,2.4286,2.4291,2.4282,2.4279,2.4295,2.4296,2.4302,2.4341,2.4341,2.4297,2.4299,2.4299,2.43,0,0,0,0,0,0,0,2.4283,2.4287,2.4325,2.4305,2.4302,2.4291,2.4291,2.4316,2.4303,2.429,2.4287,2.4289,2.4294,2.43,2.4301,2.4342,2.4297,2.4299,2.43,2.4301,2.4419,2.442,0,0,0,0,0,0,2.4285,2.4286,2.4325,2.4325,2.4288,2.4293,2.4294,2.4305,2.4303,2.4301,2.429,2.4287,2.4297,2.4299,2.4302,2.4357,2.4299,2.4301,2.4302,2.4417,2.4419,2.4421,0,0,0,0,0,0,2.4284,2.4289,2.4324,2.4305,2.4308,2.4296,2.431,2.4306,2.4312,2.4303,2.43,2.4299,2.4296,2.4299,2.4331,2.4356,2.4302,2.4304,2.4414,2.4417,2.442,2.4469,0,0,0,0,0,0,2.4283,2.4289,2.4308,2.4305,2.4309,2.4354,2.4311,2.4308,2.4316,2.4311,2.431,2.4308,2.4295,2.4328,2.4333,2.4358,2.4306,2.4412,2.4416,2.4419,2.4465,2.4474,2.4481,0,0,0,0,0,2.4281,2.4322,2.4309,2.4314,2.4334,2.4356,2.4358,2.4342,2.4318,2.4337,2.4331,2.4308,2.4354,2.4332,2.4337,2.4363,2.441,2.4415,2.4419,2.4462,2.4472,2.4481,0,0,0,0,0,0,2.4329,2.4322,2.4307,2.4349,2.4353,2.4348,2.4371,2.4353,2.4364,2.4359,2.4338,2.4338,2.4373,2.4372,2.4347,2.4409,2.4378,2.4383,2.4409,2.4418,2.4426,2.4424,2.4307,0,0,0,0,0,2.4344,2.4364,2.4356,2.4394,2.4397,2.4384,2.4393,2.438,2.4383,2.4385,2.4381,2.4384,2.4399,2.4409,2.4422,2.4466,2.4463,2.4486,2.4494,2.45,2.4505,2.4524,2.4533,2.4435,2.4435,2.4435,0,0,2.4377,2.4375,2.4389,2.4404,2.4405,2.4424,2.4386,2.4408,2.4421,2.4388,2.4417,2.4414,2.4417,2.4454,2.447,2.4454,2.4531,2.4506,2.4511,2.4512,2.453,2.4539,2.4547,2.4438,2.4438,2.4437,0,0,2.4444,2.4446,2.4476,2.4478,2.4481,2.4472,2.4479,2.4477,2.4473,2.4502,2.4476,2.4492,2.4519,2.452,2.4525,2.4591,2.457,2.4596,2.4635,2.4655,2.4662,2.4669,2.469,2.4698,2.4601,2.4601,2.4601,0,2.4483,2.4511,2.4494,2.4517,2.4523,2.4494,2.4523,2.4526,2.4533,2.4537,2.4519,2.455,2.455,2.4585,2.4601,2.4607,2.4613,2.4595,2.4663,2.4669,2.4675,2.4695,2.4703,2.4604,2.4604,2.4603,2.4603,0,2.4558,2.4578,2.4602,2.4608,2.4617,2.4644,2.4629,2.464,2.4626,2.4618,2.4647,2.4646,2.4657,2.4665,2.4652,2.4698,2.4687,2.4667,2.4634,2.4688,2.4705,2.4713,2.4608,2.4607,2.4606,2.4606,0,0,2.4656,2.4651,2.466,2.4661,2.4661,2.4675,2.47,2.471,2.4718,2.4725,2.4742,2.4765,2.4745,2.475,2.4737,2.4755,2.4803,2.4731,2.4731,2.4742,2.485,2.4863,2.4872,2.479,2.4792,2.4793,2.4849,0,2.4719,2.4759,2.4743,2.4785,2.4801,2.4773,2.4793,2.4795,2.4788,2.4801,2.4794,2.4808,2.4783,2.4785,2.4801,2.4794,2.4824,2.479,2.4804,2.4805,2.4802,2.4882,2.4897,2.495,2.4856,2.4857,2.4858,0,2.4798,2.4806,2.4848,2.4843,2.4849,2.4868,2.4875,2.4888,2.4888,2.4882,2.4887,2.4869,2.4891,2.486,2.4888,2.4865,2.4871,2.4868,2.4869,2.4868,2.4833,2.488,2.4967,2.4973,2.4869,2.4868,2.4868,0,2.4861,2.4882,2.4909,2.4912,2.4907,2.492,2.4919,2.4918,2.4924,2.493,2.4934,2.4943,2.4947,2.4954,2.4939,2.4918,2.4968,2.4937,2.4961,2.4962,2.4971,2.497,2.5057,2.498,2.498,2.498,2.4979,0,2.4931,2.4958,2.4937,2.4953,2.4981,2.4963,2.4991,2.4986,2.4985,2.4999,2.4977,2.499,2.4971,2.4982,2.4971,2.4994,2.4997,2.4991,2.4987,2.4991,2.4992,2.4992,2.4987,2.4982,2.4981,2.4981,2.498,0,2.5005,2.4993,2.502,2.5013,2.5012,2.5032,2.5026,2.504,2.5032,2.505,2.5053,2.504,2.5052,2.5038,2.5049,2.5041,2.5072,2.5064,2.5071,2.5068,2.5092,2.5089,2.518,2.519,2.5109,2.511,2.5111,0,2.505,2.5069,2.5064,2.5071,2.5071,2.5084,2.509,2.5072,2.5079,2.508,2.5093,2.5104,2.511,2.5131,2.5121,2.5129,2.512,2.5151,2.5121,2.5123,2.5116,2.5114,2.5114,2.5156,2.5157,2.5158,2.5159,0,2.5129,2.5121,2.5131,2.5137,2.5145,2.515,2.5152,2.516,2.5141,2.515,2.5161,2.5167,2.5177,2.5187,2.5192,2.5189,2.517,2.5169,2.5174,2.5177,2.5179,2.5175,2.5085,2.5166,2.5165,2.5165,2.5165,2.5164,2.5188,2.5202,2.5199,2.521,2.521,2.5213,2.5225,2.5217,2.5227,2.5233,2.5223,2.5236,2.5234,2.5239,2.5239,2.5249,2.5235,2.5244,2.5246,2.5247,2.5249,2.518,2.525,2.525,2.5249,2.5249,2.5249,0,2.5263,2.5259,2.5269,2.5273,2.5281,2.5263,2.5264,2.5272,2.5284,2.5284,2.529,2.5302,2.5311,2.5302,2.5309,2.5318,2.5309,2.532,2.5318,2.5317,2.5263,2.5256,2.5327,2.5327,2.5327,2.5327,2.5327,2.5327,2.5303,2.5325,2.5317,2.5338,2.5335,2.5348,2.535,2.5351,2.5351,2.5365,2.5371,2.5366,2.5362,2.5367,2.5374,2.5371,2.5373,2.5386,2.538,2.5329,2.5321,2.5314,2.5307,2.5388,2.5388,2.5433,2.5433,2.5434]},{"header":{"parameterUnit":"m.s-1","parameterCategory":1,"la1":30.2991,"la2":30.254,"lo1":-89.0895,"lo2":-89.0444,"dy":0.0017,"dx":0.0017,"nx":28,"ny":28,"refTime":"2025-09-15T21:00:00:Z","depth":0,"parameterNumber":3,"parameterNumberName":"V-component_of_WINDS"},"data":[0,0,0,0,0,0,0,0,0,0,0,0,0,0,0,0,0,0,0,0,0,0,0,0,0,0,0,0,0,0,0,0,0,0,0,0,0,0,0,0,0,0,0,0,0,0,0,0,0,0,0,0,0,0,0,0,0,0,0.464,0.4642,0,0.4826,0.4828,0.483,0.4895,0.4894,0.4894,0.4893,0.5082,0.5088,0.5093,0,0,0,0,0,0,0,0,0,0,0,0,0,0.434,0.4345,0.464,0.4642,0.4645,0.4825,0.4828,0.483,0.4895,0.4894,0.4893,0.4893,0.508,0.5087,0.5094,0,0,0,0,0,0,0,0,0,0,0,0,0,0.4492,0.4347,0.464,0.4699,0.4706,0.4825,0.4828,0.4831,0.4895,0.4894,0.4893,0.4892,0.5078,0.5087,0.5095,0.5168,0,0,0.5121,0.5125,0,0,0,0,0,0,0,0,0.4484,0.4503,0.4688,0.4695,0.4703,0.4836,0.4792,0.4944,0.4895,0.4823,0.4893,0.4892,0.5001,0.5016,0.5053,0.5177,0.5185,0.5122,0.5127,0.5131,0.5133,0,0,0,0,0,0,0,0.4473,0.4496,0.4713,0.469,0.47,0.4715,0.4736,0.4821,0.4916,0.483,0.4835,0.4856,0.5005,0.5045,0.5058,0.5188,0.5122,0.5129,0.5134,0.5138,0.538,0.5381,0,0,0,0,0,0,0.4453,0.4487,0.4708,0.4719,0.4589,0.4722,0.4745,0.4794,0.4915,0.4932,0.4856,0.4858,0.5031,0.5048,0.5065,0.5158,0.5131,0.5139,0.5143,0.5379,0.538,0.5382,0,0,0,0,0,0,0.4446,0.4472,0.47,0.4604,0.4635,0.4728,0.4783,0.4799,0.4838,0.4935,0.4953,0.488,0.503,0.5053,0.5142,0.5166,0.5142,0.515,0.5377,0.5379,0.5381,0.5346,0,0,0,0,0,0,0.4437,0.4469,0.4499,0.4604,0.4639,0.4774,0.4785,0.4803,0.4853,0.4857,0.4962,0.4978,0.5031,0.5129,0.515,0.5177,0.5157,0.5376,0.5378,0.5381,0.5345,0.5346,0.5347,0,0,0,0,0,0.4426,0.4481,0.45,0.4526,0.4678,0.4776,0.4796,0.4856,0.4854,0.4885,0.4947,0.4975,0.5159,0.5137,0.5162,0.5192,0.5374,0.5377,0.538,0.5345,0.5346,0.5347,0,0,0,0,0,0,0.4377,0.4497,0.4518,0.4609,0.4682,0.4786,0.4827,0.4856,0.493,0.4931,0.5002,0.5025,0.5109,0.5159,0.5132,0.5268,0.5268,0.5276,0.5233,0.5235,0.5236,0.5222,0.5164,0,0,0,0,0,0.4376,0.4445,0.4546,0.4617,0.4652,0.4733,0.4777,0.4818,0.4896,0.4927,0.4995,0.507,0.5144,0.5192,0.5266,0.5352,0.5375,0.5384,0.5385,0.5386,0.5392,0.544,0.5445,0.5392,0.5392,0.5392,0,0,0.4376,0.445,0.449,0.4609,0.467,0.4739,0.4758,0.4832,0.4884,0.4938,0.5026,0.5078,0.5166,0.5253,0.5295,0.5298,0.5412,0.5389,0.5389,0.5396,0.5444,0.5449,0.5453,0.5394,0.5393,0.5393,0,0,0.4412,0.4475,0.454,0.46,0.4692,0.4745,0.476,0.486,0.4897,0.4987,0.5028,0.5091,0.5218,0.5279,0.5326,0.5381,0.541,0.5403,0.5409,0.5455,0.5459,0.5463,0.5483,0.5489,0.5409,0.5409,0.5409,0,0.44,0.4508,0.457,0.4641,0.4692,0.4743,0.4809,0.4864,0.4975,0.5008,0.501,0.517,0.5232,0.5334,0.5347,0.5384,0.5403,0.5393,0.5453,0.5458,0.5463,0.5482,0.5489,0.5408,0.5408,0.5408,0.5408,0,0.4488,0.4562,0.4603,0.4709,0.4764,0.4832,0.4904,0.4952,0.4987,0.5039,0.5129,0.5205,0.5295,0.5322,0.5357,0.5428,0.5427,0.5439,0.5441,0.5466,0.5485,0.5493,0.5406,0.5406,0.5407,0.5407,0,0,0.45,0.4637,0.4652,0.47,0.4803,0.4861,0.4931,0.5018,0.5058,0.5132,0.5192,0.5297,0.531,0.5363,0.5405,0.5445,0.5483,0.5453,0.5456,0.5456,0.5565,0.5555,0.5563,0.5502,0.5503,0.5505,0.5558,0,0.4549,0.4677,0.4734,0.4835,0.4903,0.4951,0.5012,0.5081,0.5131,0.5196,0.5251,0.5324,0.5335,0.5367,0.5409,0.5469,0.5506,0.5466,0.5558,0.556,0.5535,0.5573,0.5564,0.561,0.5566,0.5567,0.5568,0,0.4625,0.4698,0.4806,0.49,0.4931,0.4984,0.5068,0.513,0.5209,0.5242,0.5301,0.534,0.5414,0.5409,0.5511,0.5483,0.5523,0.5558,0.5561,0.5573,0.5566,0.5586,0.5627,0.5634,0.5581,0.558,0.5579,0,0.4622,0.4748,0.4829,0.4868,0.498,0.5016,0.5064,0.5143,0.5191,0.5264,0.5296,0.5377,0.5421,0.5482,0.5541,0.5533,0.5638,0.5638,0.5667,0.5665,0.5688,0.5686,0.5736,0.5713,0.5713,0.5713,0.5712,0,0.4672,0.4736,0.4829,0.4878,0.4951,0.5015,0.5085,0.5137,0.5205,0.5265,0.5311,0.5366,0.5441,0.5505,0.5552,0.5629,0.5649,0.5678,0.5689,0.5674,0.567,0.5702,0.5701,0.5715,0.5714,0.5714,0.5713,0,0.4682,0.4747,0.4838,0.4935,0.4961,0.501,0.5094,0.5143,0.5195,0.527,0.5291,0.5371,0.5449,0.5514,0.5616,0.5648,0.5728,0.5741,0.5701,0.5707,0.5733,0.5729,0.5806,0.5819,0.5786,0.5786,0.5786,0,0.4709,0.476,0.4862,0.4906,0.4953,0.5022,0.5072,0.5136,0.5185,0.5278,0.5316,0.5397,0.5465,0.5587,0.5654,0.5732,0.5748,0.5769,0.576,0.5743,0.5749,0.5745,0.575,0.577,0.577,0.577,0.577,0,0.4752,0.4781,0.485,0.4931,0.4988,0.5055,0.5122,0.5155,0.5231,0.5284,0.5364,0.5417,0.5521,0.56,0.5685,0.5734,0.5765,0.5772,0.5783,0.5769,0.5743,0.5757,0.5703,0.5771,0.5771,0.5771,0.5771,0.5771,0.4772,0.4818,0.4897,0.4973,0.503,0.5092,0.5143,0.52,0.5267,0.5357,0.539,0.5472,0.5548,0.5665,0.5714,0.5778,0.5782,0.5798,0.5802,0.5805,0.5802,0.5732,0.5793,0.5794,0.5794,0.5794,0.5794,0,0.4816,0.4869,0.4938,0.503,0.5089,0.5113,0.5188,0.5236,0.5307,0.5375,0.5441,0.5532,0.5609,0.5681,0.5761,0.5798,0.5814,0.5817,0.5816,0.5826,0.5794,0.5777,0.5803,0.5803,0.5803,0.5803,0.5803,0.5803,0.4846,0.4926,0.4964,0.5072,0.5124,0.5204,0.5245,0.5302,0.5357,0.5456,0.552,0.5567,0.5637,0.5722,0.5793,0.5812,0.5839,0.5838,0.5861,0.583,0.5829,0.5827,0.5811,0.5843,0.5844,0.5888,0.5888,0.5888]}]]